EW5069 Weather Reports


Display with metric or nautical units.
time (UTC)temp
F
wind
direction
speed
MPH
gust
MPH
rain 1hr
in
rain 24hr
in
rain mn
in
humidity
%
barometer
mb
20260831191522 90 0.0 14.0 0.00 0.00 0.00 59 1015.6
20260831190019 90 0.0 13.0 0.00 0.00 0.00 57 1015.8
20260831184532 89 0.0 14.0 0.00 0.00 0.00 61 1016.0
20260831183013 88 0.0 11.0 0.00 0.00 0.00 63 1016.2
20260831181510 85 0.0 5.0 0.00 0.00 0.00 70 1016.5
20260831180009 84 0.0 5.0 0.00 0.00 0.00 73 1016.8
20260831174510 83 0.0 6.0 0.00 0.00 0.00 73 1017.1
20260831173009 84 0.0 12.0 0.00 0.00 0.00 70 1016.9
20260831171512 84 0.0 13.0 0.00 0.00 0.00 69 1016.8
20260831170008 86 360 0.0 13.0 0.00 0.00 0.00 65 1016.9
20260831164504 84 0.0 12.0 0.00 0.00 0.00 68 1017.2
20260831163002 83 0.0 12.0 0.00 0.00 0.00 70 1017.3
20260831161612 82 0.0 10.0 0.00 0.00 0.00 75 1017.2
20260831160057 82 0.0 11.0 0.00 0.00 0.00 75 1017.3
20260831154601 81 0.0 10.0 0.00 0.00 0.00 78 1017.2
20260831153052 80 0.0 11.0 0.00 0.00 0.00 77 1017.1
20260831151549 80 0.0 9.0 0.00 0.00 0.00 81 1017.2
20260831150044 77 0.0 6.0 0.00 0.00 0.00 84 1017.1
20260831144543 77 0.0 6.0 0.00 0.00 0.00 84 1017.1
20260831143042 77 360 0.0 8.0 0.00 0.00 0.00 84 1017.1
20260831141539 76 0.0 8.0 0.00 0.00 0.00 85 1017.0
20260831140035 75 0.0 6.0 0.00 0.00 0.00 85 1016.9
20260831134533 75 0.0 8.0 0.00 0.00 0.00 85 1017.0
20260831133030 74 0.0 9.0 0.00 0.00 0.00 86 1016.8
20260831131525 73 0.0 9.0 0.00 0.00 0.00 87 1016.7
20260831130024 72 0.0 8.0 0.00 0.00 0.00 88 1016.7
20260831124522 72 0.0 6.0 0.00 0.00 0.00 89 1016.5
20260831123020 71 0.0 6.0 0.00 0.00 0.00 88 1016.4
20260831121522 71 0.0 8.0 0.00 0.00 0.00 88 1016.2
20260831120028 71 360 0.0 8.0 0.00 0.00 0.00 88 1016.1
20260831114517 70 0.0 9.0 0.00 0.00 0.00 88 1016.0
20260831113013 70 0.0 5.0 0.00 0.00 0.00 88 1016.0
20260831111520 70 0.0 5.0 0.00 0.00 0.00 88 1016.1
20260831110009 70 0.0 5.0 0.00 0.00 0.00 88 1016.1
20260831104508 70 0.0 5.0 0.00 0.00 0.00 89 1016.0
20260831103012 70 0.0 5.0 0.00 0.00 0.00 89 1016.0
20260831101508 70 0.0 6.0 0.00 0.00 0.00 89 1016.0
20260831100008 70 0.0 5.0 0.00 0.00 0.00 88 1015.8
20260831094503 71 0.0 5.0 0.00 0.00 0.00 88 1015.7
20260831093003 71 0.0 4.0 0.00 0.00 0.00 88 1015.7
20260831091613 72 0.0 5.0 0.00 0.00 0.00 88 1015.8
20260831090108 71 0.0 6.0 0.00 0.00 0.00 88 1015.7
20260831084559 71 0.0 5.0 0.00 0.00 0.00 88 1015.6
20260831083057 72 0.0 8.0 0.00 0.00 0.00 87 1015.7
20260831081555 73 0.0 6.0 0.00 0.00 0.00 86 1015.7
20260831080104 73 0.0 4.0 0.00 0.00 0.00 86 1015.8
20260831074555 73 0.0 2.0 0.00 0.00 0.00 86 1015.8
20260831073055 73 0.0 3.0 0.00 0.00 0.00 86 1015.8
20260831071554 72 0.0 6.0 0.00 0.00 0.00 87 1015.6
20260831070051 73 0.0 8.0 0.00 0.00 0.00 85 1015.5
20260831064550 73 0.0 6.0 0.00 0.00 0.00 85 1015.6
20260831063049 73 0.0 8.0 0.00 0.00 0.00 84 1016.0
20260831061547 73 0.0 6.0 0.00 0.00 0.00 84 1016.0
20260831060047 73 0.0 4.0 0.00 0.00 0.00 86 1016.2
20260831054545 73 0.0 2.0 0.00 0.00 0.00 85 1016.4
20260831053044 74 0.0 2.0 0.00 0.00 0.00 84 1016.4
20260831051541 74 0.0 4.0 0.00 0.00 0.00 84 1016.3
20260831050041 74 0.0 4.0 0.00 0.00 0.00 85 1016.2
20260831044540 74 0.0 3.0 0.00 0.00 0.00 86 1016.1
20260831043039 74 0.0 4.0 0.00 0.00 0.00 87 1016.1
20260831041548 75 0.0 4.0 0.00 0.00 0.00 85 1016.0
20260831040034 74 0.0 4.0 0.00 0.00 0.00 86 1016.0
20260831034533 74 0.0 6.0 0.00 0.00 0.00 86 1016.0
20260831033033 74 0.0 5.0 0.00 0.00 0.00 86 1015.9
20260831031540 75 0.0 5.0 0.00 0.00 0.00 86 1015.9
20260831030032 75 0.0 6.0 0.00 0.00 0.00 84 1015.9
20260831024532 76 0.0 6.0 0.00 0.00 0.00 85 1016.0
20260831023031 75 0.0 4.0 0.00 0.00 0.00 85 1016.1
20260831021531 76 0.0 3.0 0.00 0.00 0.00 85 1016.4
20260831020030 76 0.0 3.0 0.00 0.00 0.00 84 1016.3
20260831014530 77 0.0 4.0 0.00 0.00 0.00 83 1016.3
20260831013030 77 0.0 6.0 0.00 0.00 0.00 83 1016.0
20260831011630 77 0.0 5.0 0.00 0.00 0.00 83 1015.8
20260831010034 77 0.0 5.0 0.00 0.00 0.00 83 1016.0
20260831004528 76 0.0 4.0 0.00 0.00 0.00 84 1015.8
20260831003027 76 0.0 3.0 0.00 0.00 0.00 85 1015.8
20260831001526 77 0.0 2.0 0.00 0.00 0.00 84 1015.8
20260831000027 78 0.0 2.0 0.00 0.00 0.00 82 1015.9
20260830234538 78 0.0 2.0 0.00 0.00 0.00 82 1016.0
20260830233025 80 0.0 2.0 0.00 0.00 0.00 80 1016.1
20260830231524 81 0.0 2.0 0.00 0.00 0.00 78 1016.3
20260830230027 81 0.0 2.0 0.00 0.00 0.00 77 1016.5
20260830224522 82 0.0 3.0 0.00 0.00 0.00 75 1016.5
20260830223023 82 0.0 3.0 0.00 0.00 0.00 71 1016.5
20260830221528 82 0.0 3.0 0.00 0.00 0.00 72 1016.5
20260830220020 82 0.0 5.0 0.00 0.00 0.00 71 1016.5
20260830214519 82 0.0 8.0 0.00 0.00 0.00 70 1016.3
20260830213023 82 0.0 8.0 0.00 0.00 0.00 69 1016.1
20260830211520 83 0.0 11.0 0.00 0.00 0.00 67 1016.0
20260830210019 83 0.0 12.0 0.00 0.00 0.00 65 1016.0
20260830204531 84 0.0 15.0 0.00 0.00 0.00 62 1015.8
20260830203015 83 0.0 20.0 0.00 0.00 0.00 59 1016.0
20260830201511 83 0.0 16.0 0.00 0.00 0.00 61 1016.2
20260830200010 82 0.0 15.0 0.00 0.00 0.00 65 1016.6
20260830194506 81 0.0 14.0 0.00 0.00 0.00 66 1016.8
20260830193004 80 0.0 15.0 0.00 0.00 0.00 68 1016.8
20260830191607 80 0.0 13.0 0.00 0.00 0.00 74 1016.7